Location: Bald Rock
(37.3738°N, 119.9354°W)
Time: 23:08:48
(UTC+00:00)

Cosmos 1867 - Pass Details

Date: 08 September 2024
Orbit: 772 x 802 km, 65.0° (Epoch: 12 October)

Event Time Altitude Azimuth Distance (km) Brightness Sun altitude
Exits shadow 13:04:07 - 221° (SW) 3,067 6.1 -7.2°
Reaches altitude 10° 13:06:02 10° 225° (SW) 2,349 5.5 -6.8°
Maximum altitude 13:11:20 56° 303° (WNW) 947 3.8 -5.8°
Drops below altitude 10° 13:16:43 10° 22° (NNE) 2,378 6.5 -4.7°
Sets 13:19:12 0° 27° (NNE) 3,314 7.4 -4.2°
